| time (UTC) | temp F | wind direction | speed MPH | gust MPH | rain 1hr in | rain 24hr in | rain mn in | humidity % | barometer mb |
| 20260901013036 | 86 | 111 | 1.0 | 3.0 | 0.00 | 0.00 | 0.00 | 75 | 1018.3 |
| 20260901011535 | 87 | 111 | 1.0 | 3.0 | 0.00 | 0.00 | 0.00 | 74 | 1018.3 |
| 20260901010038 | 87 | 109 | 1.0 | 4.0 | 0.00 | 0.00 | 0.00 | 72 | 1018.1 |
| 20260901004533 | 88 | 107 | 1.0 | 3.0 | 0.00 | 0.00 | 0.00 | 72 | 1018.1 |
| 20260901003033 | 89 | 105 | 2.0 | 4.0 | 0.00 | 0.00 | 0.00 | 70 | 1018.0 |
| 20260901001531 | 91 | 165 | 1.0 | 3.0 | 0.00 | 0.00 | 0.00 | 68 | 1018.1 |
| 20260901000029 | 91 | 174 | 1.0 | 2.0 | 0.00 | 0.00 | 0.00 | 67 | 1018.1 |
| 20260831234528 | 91 | 174 | 1.0 | 3.0 | 0.00 | 0.00 | 0.00 | 67 | 1018.2 |
| 20260831233027 | 92 | 174 | 2.0 | 4.0 | 0.00 | 0.00 | 0.00 | 64 | 1018.3 |
| 20260831231626 | 94 | 182 | 1.0 | 7.0 | 0.00 | 0.00 | 0.00 | 60 | 1018.2 |
| 20260831230024 | 94 | 165 | 3.0 | 8.0 | 0.00 | 0.00 | 0.00 | 58 | 1018.3 |
| 20260831224524 | 94 | 153 | 3.0 | 7.0 | 0.00 | 0.00 | 0.00 | 56 | 1018.3 |
| 20260831223022 | 94 | 174 | 4.0 | 8.0 | 0.00 | 0.00 | 0.00 | 58 | 1018.5 |
| 20260831221531 | 94 | 188 | 4.0 | 8.0 | 0.00 | 0.00 | 0.00 | 55 | 1018.6 |
| 20260831220020 | 94 | 182 | 2.0 | 10.0 | 0.00 | 0.00 | 0.00 | 57 | 1018.6 |
| 20260831214519 | 95 | 163 | 2.0 | 8.0 | 0.00 | 0.00 | 0.00 | 57 | 1018.7 |
| 20260831213017 | 95 | 153 | 3.0 | 9.0 | 0.00 | 0.00 | 0.00 | 56 | 1018.8 |
| 20260831211516 | 94 | 140 | 3.0 | 10.0 | 0.00 | 0.00 | 0.00 | 57 | 1018.9 |
| 20260831210014 | 95 | 171 | 5.0 | 11.0 | 0.00 | 0.00 | 0.00 | 57 | 1019.1 |
| 20260831204512 | 94 | 130 | 5.0 | 10.0 | 0.00 | 0.00 | 0.00 | 59 | 1019.2 |
| 20260831203011 | 94 | 128 | 4.0 | 9.0 | 0.00 | 0.00 | 0.00 | 58 | 1019.2 |
| 20260831201510 | 94 | 207 | 6.0 | 11.0 | 0.00 | 0.00 | 0.00 | 58 | 1019.2 |
| 20260831200008 | 94 | 169 | 7.0 | 14.0 | 0.00 | 0.00 | 0.00 | 60 | 1019.5 |
| 20260831194516 | 94 | 171 | 3.0 | 10.0 | 0.00 | 0.00 | 0.00 | 60 | 1019.7 |
| 20260831193003 | 94 | 140 | 4.0 | 10.0 | 0.00 | 0.00 | 0.00 | 60 | 1019.9 |
| 20260831191502 | 93 | 167 | 7.0 | 11.0 | 0.00 | 0.00 | 0.00 | 61 | 1020.0 |
| 20260831190109 | 93 | 174 | 6.0 | 13.0 | 0.00 | 0.00 | 0.00 | 62 | 1020.0 |
| 20260831184658 | 93 | 165 | 5.0 | 16.0 | 0.00 | 0.00 | 0.00 | 63 | 1020.0 |
| 20260831183057 | 93 | 219 | 7.0 | 10.0 | 0.00 | 0.00 | 0.00 | 63 | 1020.2 |
| 20260831181554 | 92 | 217 | 6.0 | 11.0 | 0.00 | 0.00 | 0.00 | 63 | 1020.4 |
| 20260831180052 | 92 | 202 | 7.0 | 12.0 | 0.00 | 0.00 | 0.00 | 62 | 1020.6 |
| 20260831174557 | 92 | 151 | 3.0 | 11.0 | 0.00 | 0.00 | 0.00 | 64 | 1020.8 |
| 20260831173046 | 91 | 153 | 5.0 | 10.0 | 0.00 | 0.00 | 0.00 | 67 | 1021.0 |
| 20260831171545 | 91 | 201 | 5.0 | 10.0 | 0.00 | 0.00 | 0.00 | 67 | 1021.2 |
| 20260831170111 | 90 | 226 | 6.0 | 12.0 | 0.00 | 0.00 | 0.00 | 69 | 1021.3 |
| 20260831164539 | 90 | 182 | 6.0 | 12.0 | 0.00 | 0.00 | 0.00 | 69 | 1021.4 |
| 20260831163039 | 89 | 180 | 7.0 | 11.0 | 0.00 | 0.00 | 0.00 | 71 | 1021.5 |
| 20260831161532 | 88 | 219 | 8.0 | 12.0 | 0.00 | 0.00 | 0.00 | 72 | 1021.6 |
| 20260831160033 | 88 | 201 | 6.0 | 12.0 | 0.00 | 0.00 | 0.00 | 74 | 1021.7 |
| 20260831154527 | 87 | 165 | 5.0 | 10.0 | 0.00 | 0.00 | 0.00 | 75 | 1021.5 |
| 20260831153024 | 86 | 225 | 6.0 | 11.0 | 0.00 | 0.00 | 0.00 | 77 | 1021.6 |
| 20260831151526 | 85 | 215 | 7.0 | 11.0 | 0.00 | 0.00 | 0.00 | 78 | 1021.4 |
| 20260831150020 | 84 | 185 | 7.0 | 12.0 | 0.00 | 0.00 | 0.00 | 80 | 1021.2 |
| 20260831144524 | 84 | 188 | 7.0 | 10.0 | 0.00 | 0.00 | 0.00 | 82 | 1021.2 |
| 20260831143011 | 82 | 214 | 9.0 | 12.0 | 0.00 | 0.00 | 0.00 | 83 | 1021.1 |
| 20260831141512 | 81 | 199 | 4.0 | 8.0 | 0.00 | 0.00 | 0.00 | 86 | 1021.1 |
| 20260831140003 | 80 | 207 | 4.0 | 8.0 | 0.00 | 0.00 | 0.00 | 88 | 1021.2 |
| 20260831134600 | 79 | 216 | 5.0 | 8.0 | 0.00 | 0.00 | 0.00 | 89 | 1021.1 |
| 20260831133059 | 78 | 209 | 5.0 | 9.0 | 0.00 | 0.00 | 0.00 | 90 | 1021.2 |
| 20260831131557 | 76 | 196 | 4.0 | 8.0 | 0.00 | 0.00 | 0.00 | 92 | 1021.2 |
| 20260831130054 | 75 | 178 | 2.0 | 5.0 | 0.00 | 0.00 | 0.00 | 94 | 1021.0 |
| 20260831124553 | 74 | 168 | 2.0 | 5.0 | 0.00 | 0.00 | 0.00 | 94 | 1020.9 |
| 20260831123054 | 73 | 155 | 1.0 | 3.0 | 0.00 | 0.00 | 0.00 | 95 | 1020.7 |
| 20260831121550 | 72 | 150 | 1.0 | 2.0 | 0.00 | 0.00 | 0.00 | 95 | 1020.5 |
| 20260831120049 | 72 | 148 | 2.0 | 3.0 | 0.00 | 0.00 | 0.00 | 94 | 1020.4 |
| 20260831114547 | 71 | 148 | 0.0 | 1.0 | 0.00 | 0.00 | 0.00 | 94 | 1020.4 |
| 20260831113051 | 72 | 148 | 1.0 | 3.0 | 0.00 | 0.00 | 0.00 | 93 | 1020.3 |
| 20260831111544 | 72 | 145 | 1.0 | 3.0 | 0.00 | 0.00 | 0.00 | 94 | 1020.1 |
| 20260831110042 | 72 | 136 | 0.0 | 2.0 | 0.00 | 0.00 | 0.00 | 93 | 1020.0 |
| 20260831104545 | 72 | 135 | 1.0 | 2.0 | 0.00 | 0.00 | 0.00 | 93 | 1019.8 |
| 20260831103056 | 73 | 134 | 2.0 | 4.0 | 0.00 | 0.00 | 0.00 | 93 | 1019.7 |
| 20260831101540 | 73 | 133 | 2.0 | 4.0 | 0.00 | 0.00 | 0.00 | 93 | 1019.7 |
| 20260831100039 | 73 | 169 | 1.0 | 3.0 | 0.00 | 0.00 | 0.00 | 93 | 1019.5 |
| 20260831094535 | 73 | 169 | 0.0 | 3.0 | 0.00 | 0.00 | 0.00 | 93 | 1019.4 |
| 20260831093035 | 73 | 169 | 1.0 | 3.0 | 0.00 | 0.00 | 0.00 | 93 | 1019.3 |
| 20260831091533 | 73 | 169 | 1.0 | 3.0 | 0.00 | 0.00 | 0.00 | 93 | 1019.2 |
| 20260831090032 | 73 | 169 | 1.0 | 2.0 | 0.00 | 0.00 | 0.00 | 93 | 1019.2 |
| 20260831084531 | 73 | 169 | 1.0 | 2.0 | 0.00 | 0.00 | 0.00 | 92 | 1019.0 |
| 20260831083029 | 74 | 169 | 0.0 | 0.0 | 0.00 | 0.00 | 0.00 | 91 | 1019.0 |
| 20260831081528 | 74 | 169 | 0.0 | 0.0 | 0.00 | 0.00 | 0.00 | 91 | 1019.1 |
| 20260831080046 | 74 | 169 | 0.0 | 3.0 | 0.00 | 0.00 | 0.00 | 91 | 1018.7 |
| 20260831074524 | 74 | 169 | 1.0 | 3.0 | 0.00 | 0.00 | 0.00 | 90 | 1018.6 |
| 20260831073030 | 75 | 157 | 3.0 | 5.0 | 0.00 | 0.00 | 0.00 | 90 | 1018.6 |
| 20260831071521 | 75 | 163 | 1.0 | 3.0 | 0.00 | 0.00 | 0.00 | 90 | 1018.8 |
| 20260831070023 | 75 | 163 | 1.0 | 3.0 | 0.00 | 0.00 | 0.00 | 89 | 1018.9 |
| 20260831064517 | 76 | 159 | 1.0 | 3.0 | 0.00 | 0.00 | 0.00 | 88 | 1019.1 |
| 20260831063020 | 76 | 154 | 1.0 | 3.0 | 0.00 | 0.00 | 0.00 | 88 | 1019.0 |
| 20260831061515 | 76 | 150 | 2.0 | 5.0 | 0.00 | 0.00 | 0.00 | 87 | 1019.0 |
| 20260831060013 | 76 | 142 | 3.0 | 5.0 | 0.00 | 0.00 | 0.00 | 85 | 1019.1 |
| 20260831054511 | 76 | 144 | 2.0 | 3.0 | 0.00 | 0.00 | 0.00 | 85 | 1019.2 |
| 20260831053014 | 77 | 144 | 1.0 | 2.0 | 0.00 | 0.00 | 0.00 | 84 | 1019.2 |
| 20260831051511 | 77 | 144 | 2.0 | 5.0 | 0.00 | 0.00 | 0.00 | 83 | 1019.2 |
| 20260831050004 | 77 | 132 | 4.0 | 7.0 | 0.00 | 0.00 | 0.00 | 83 | 1019.0 |
| 20260831044512 | 78 | 123 | 2.0 | 4.0 | 0.00 | 0.00 | 0.00 | 82 | 1019.1 |
| 20260831043003 | 78 | 115 | 3.0 | 4.0 | 0.00 | 0.00 | 0.00 | 80 | 1019.1 |
| 20260831041508 | 79 | 113 | 4.0 | 6.0 | 0.00 | 0.00 | 0.00 | 78 | 1019.0 |
| 20260831040001 | 80 | 112 | 3.0 | 7.0 | 0.00 | 0.00 | 0.00 | 76 | 1019.1 |
| 20260831034501 | 81 | 112 | 4.0 | 9.0 | 0.00 | 0.00 | 0.00 | 75 | 1019.0 |
| 20260831033001 | 81 | 115 | 5.0 | 8.0 | 0.00 | 0.00 | 0.00 | 74 | 1018.9 |
| 20260831031610 | 82 | 115 | 3.0 | 6.0 | 0.00 | 0.00 | 0.00 | 72 | 1018.9 |
| 20260831031501 | 82 | 115 | 3.0 | 6.0 | 0.00 | 0.00 | 0.00 | 72 | 1018.8 |
| 20260831030116 | 81 | 113 | 2.0 | 4.0 | 0.00 | 0.00 | 0.00 | 74 | 1018.8 |
| 20260831024559 | 82 | 109 | 1.0 | 3.0 | 0.00 | 0.00 | 0.00 | 74 | 1018.9 |
| 20260831023059 | 82 | 108 | 2.0 | 6.0 | 0.00 | 0.00 | 0.00 | 72 | 1018.7 |
| 20260831021559 | 82 | 109 | 3.0 | 6.0 | 0.00 | 0.00 | 0.00 | 72 | 1018.6 |
| 20260831020058 | 82 | 118 | 3.0 | 6.0 | 0.00 | 0.00 | 0.00 | 73 | 1018.5 |
| 20260831014558 | 83 | 145 | 1.0 | 3.0 | 0.00 | 0.00 | 0.00 | 74 | 1018.5 |